Weather History for Nampa, ID

Change the Weather History Date:

Monday, October 29, 2012

  Actual Average (KBOI) Record (KBOI)
Temperature  
Mean Temperature 54 °F 48 °F  
Max Temperature 68 °F 58 °F 77 °F (1968)
Min Temperature 39 °F 37 °F 11 °F (1971)
Degree Days  
Heating Degree Days 12 17  
Month to date heating degree days 348  
Since 1 July heating degree days 469  
Cooling Degree Days 0 0  
Month to date cooling degree days 7  
Year to date cooling degree days 941  
Growing Degree Days 4 (Base 50)    
Moisture  
Dew Point 44 °F    
Average Humidity 87    
Maximum Humidity 100    
Minimum Humidity 40    
Precipitation  
Precipitation 0.00 in 0.03 in 0.68 in (1982)
Month to date precipitation 0.68  
Year to date precipitation 8.76  
Snow  
Snow 0.00 in 0.00 in 2.10 in (1919)
Month to date snowfall 0.1  
Since 1 July snowfall 0.1  
Snow Depth -    
Sea Level Pressure  
Sea Level Pressure 30.09 in    
Wind  
Wind Speed 2 mph (NE)    
Max Wind Speed 10 mph    
Max Gust Speed -    
Visibility 5 miles    
Events      
T = Trace of Precipitation, MM = Missing Value Source: NWS Daily Summary

Daily Weather History Graph

Daily Weather History Graph

Search for Another Location

Airport:

Trip Planner

Search our weather history database for the weather conditions in past years. The results will help you decide how hot, cold, wet, or windy it might be!

Date:

Astronomy

Oct. 29, 2012 Rise Set
Actual Time 8:18 AM MDT 6:40 PM MDT
Civil Twilight 7:48 AM MDT 7:09 PM MDT
Nautical Twilight 7:15 AM MDT 7:43 PM MDT
Astronomical Twilight 6:41 AM MDT 8:16 PM MDT
Moon 6:33 PM MDT (10/29) 8:14 AM MDT (10/29)
Length of Visible Light 11h 21m
Length of Day
10h 21m
Full, 100% of the Moon is Illuminated
Oct 29
Full
Oct 29
Full
Nov 6
Last Quarter
Nov 13
New
Nov 20
First Quarter

Hourly Weather History & Observations

Time (MDT) Temp. Windchill Dew Point Humidity Pressure Visibility Wind Dir Wind Speed Gust Speed Precip Events Conditions
12:15 AM 44.6 °F - 44.6 °F 100% 30.05 in 5.0 mi Calm Calm - N/A   Scattered Clouds
12:55 AM 41.0 °F 39.0 °F 41.0 °F 100% 30.04 in 1.8 mi SSE 3.5 mph - N/A   Clear
1:15 AM 41.0 °F - 41.0 °F 100% 30.04 in 2.0 mi Calm Calm - N/A   Clear
1:35 AM 41.0 °F - 41.0 °F 100% 30.04 in 2.0 mi Calm Calm - N/A   Clear
1:55 AM 41.0 °F - 41.0 °F 100% 30.04 in 2.5 mi Calm Calm - N/A   Scattered Clouds
2:15 AM 41.0 °F - 41.0 °F 100% 30.04 in 2.5 mi Calm Calm - N/A   Overcast
2:35 AM 41.0 °F - 41.0 °F 100% 30.05 in 3.0 mi Calm Calm - N/A   Overcast
2:55 AM 41.0 °F - 41.0 °F 100% 30.05 in 0.2 mi Calm Calm - N/A   Overcast
3:15 AM 41.0 °F - 41.0 °F 100% 30.05 in 0.2 mi Calm Calm - N/A   Overcast
3:55 AM 41.0 °F - 41.0 °F 100% 30.05 in 0.2 mi Calm Calm - N/A   Overcast
4:15 AM 41.0 °F - 41.0 °F 100% 30.05 in 0.2 mi Calm Calm - N/A   Overcast
4:35 AM 41.0 °F 39.0 °F 41.0 °F 100% 30.06 in 0.5 mi ENE 3.5 mph - N/A   Overcast
4:55 AM 42.8 °F 41.1 °F 42.8 °F 100% 30.02 in 1.5 mi SSE 3.5 mph - N/A   Overcast
5:15 AM 42.8 °F 40.1 °F 42.8 °F 100% 30.04 in 1.0 mi SE 4.6 mph - N/A   Overcast
5:35 AM 42.8 °F - 42.8 °F 100% 30.03 in 1.5 mi Calm Calm - N/A   Overcast
5:55 AM 42.8 °F - 42.8 °F 100% 30.05 in 2.0 mi Calm Calm - N/A   Overcast
6:15 AM 42.8 °F - 42.8 °F 100% 30.05 in 2.0 mi Calm Calm - N/A   Overcast
6:35 AM 42.8 °F - 42.8 °F 100% 30.06 in 2.5 mi Calm Calm - N/A   Overcast
6:55 AM 41.0 °F - 41.0 °F 100% 30.06 in 2.5 mi Calm Calm - N/A   Mostly Cloudy
7:15 AM 41.0 °F 38.0 °F 41.0 °F 100% 30.08 in 2.5 mi North 4.6 mph - N/A   Mostly Cloudy
7:35 AM 41.0 °F - 41.0 °F 100% 30.07 in 2.5 mi Calm Calm - N/A   Mostly Cloudy
7:55 AM 39.2 °F - 39.2 °F 100% 30.07 in 0.2 mi Calm Calm - N/A   Overcast
8:15 AM 39.2 °F 37.0 °F 39.2 °F 100% 30.08 in 0.2 mi SSW 3.5 mph - N/A   Overcast
8:35 AM 41.0 °F - 41.0 °F 100% 30.09 in 0.2 mi Calm Calm - N/A   Overcast
8:55 AM 41.0 °F - 41.0 °F 100% 30.09 in 0.2 mi Calm Calm - N/A   Overcast
9:15 AM 41.0 °F - 41.0 °F 100% 30.10 in 0.2 mi Calm Calm - N/A   Overcast
9:35 AM 41.0 °F - 41.0 °F 100% 30.12 in 0.2 mi Calm Calm - N/A   Overcast
10:15 AM 41.0 °F 39.0 °F 41.0 °F 100% 30.14 in 0.2 mi West 3.5 mph - N/A   Overcast
10:35 AM 42.8 °F - 42.8 °F 100% 30.14 in 0.2 mi Calm Calm - N/A   Overcast
10:55 AM 44.6 °F - 44.6 °F 100% 30.13 in 0.2 mi Calm Calm - N/A   Overcast
11:15 AM 44.6 °F - 44.6 °F 100% 30.13 in 0.2 mi Calm Calm - N/A   Overcast
11:35 AM 46.4 °F 44.3 °F 46.4 °F 100% 30.13 in 1.5 mi East 4.6 mph - N/A   Overcast
11:55 AM 48.2 °F - 48.2 °F 100% 30.13 in 5.0 mi Calm Calm - N/A   Scattered Clouds
12:15 PM 50.0 °F - 50.0 °F 100% 30.12 in 10.0 mi ESE 3.5 mph - N/A   Clear
12:35 PM 55.4 °F - 53.6 °F 94% 30.13 in 9.0 mi Calm Calm - N/A   Clear
12:55 PM 57.2 °F - 53.6 °F 88% 30.12 in 8.0 mi Calm Calm - N/A   Clear
1:15 PM 59.0 °F - 53.6 °F 82% 30.12 in 10.0 mi Calm Calm - N/A   Clear
1:35 PM 62.6 °F - 50.0 °F 63% 30.12 in 10.0 mi Calm Calm - N/A   Clear
1:55 PM 64.4 °F - 48.2 °F 56% 30.11 in 10.0 mi Calm Calm - N/A   Clear
2:15 PM 64.4 °F - 44.6 °F 49% 30.10 in 10.0 mi NW 4.6 mph - N/A   Clear
2:35 PM 66.2 °F - 42.8 °F 43% 30.10 in 10.0 mi WNW 5.8 mph - N/A   Clear
2:55 PM 66.2 °F - 41.0 °F 40% 30.09 in 10.0 mi NNW 6.9 mph - N/A   Clear
3:15 PM 66.2 °F - 44.6 °F 46% 30.09 in 9.0 mi North 8.1 mph - N/A   Clear
3:35 PM 66.2 °F - 42.8 °F 43% 30.09 in 10.0 mi North 6.9 mph - N/A   Clear
3:55 PM 68.0 °F - 44.6 °F 43% 30.09 in 10.0 mi NNW 9.2 mph - N/A   Clear
4:15 PM 66.2 °F - 48.2 °F 52% 30.09 in 10.0 mi North 10.4 mph - N/A   Mostly Cloudy
4:35 PM 66.2 °F - 44.6 °F 46% 30.09 in 10.0 mi North 6.9 mph - N/A   Mostly Cloudy
4:55 PM 64.4 °F - 46.4 °F 52% 30.09 in 10.0 mi North 6.9 mph - N/A   Mostly Cloudy
5:15 PM 66.2 °F - 42.8 °F 43% 30.09 in 10.0 mi NNW 6.9 mph - N/A   Overcast
5:35 PM 66.2 °F - 44.6 °F 46% 30.10 in 10.0 mi NNW 8.1 mph - N/A   Mostly Cloudy
6:15 PM 62.6 °F - 50.0 °F 63% 30.10 in 10.0 mi NNW 4.6 mph - N/A   Partly Cloudy
6:35 PM 62.6 °F - 53.6 °F 72% 30.10 in 10.0 mi NW 5.8 mph - N/A   Clear
9:35 PM 46.4 °F 44.3 °F 46.4 °F 100% 30.13 in 5.0 mi SSE 4.6 mph - N/A   Clear
9:55 PM 46.4 °F 45.2 °F 46.4 °F 100% 30.13 in 5.0 mi East 3.5 mph - N/A   Clear
10:15 PM 46.4 °F 45.2 °F 46.4 °F 100% 30.12 in 5.0 mi SE 3.5 mph - N/A   Clear
10:35 PM 46.4 °F 43.5 °F 46.4 °F 100% 30.13 in 5.0 mi ENE 5.8 mph - N/A   Clear
10:55 PM 46.4 °F 44.3 °F 46.4 °F 100% 30.14 in 5.0 mi ESE 4.6 mph - N/A   Clear
11:15 PM 46.4 °F 43.5 °F 46.4 °F 100% 30.14 in 5.0 mi ESE 5.8 mph - N/A   Clear
11:35 PM 46.4 °F 45.2 °F 46.4 °F 100% 30.14 in 6.0 mi East 3.5 mph - N/A   Clear
11:55 PM 46.4 °F 45.2 °F 46.4 °F 100% 30.13 in 5.0 mi SE 3.5 mph - N/A   Clear